Find Starlink 5605

NORAD ID: 55411 Int'l Des: 2023-014 Owner: SPXS Country: US Constellation: starlink operational
LEOCIRCULAR

現在のビュー

3D地球を読み込み中...

About Starlink 5605

Starlink 5605 (NORAD 55411) is a starlink constellation satellite (v1.5) launched Jan 31, 2023 by SPXS of US. It operates in LEO, CIRCULAR orbit with a mass of 305.00 kg.

Starlink 5605について

説明を読み込み中...

次回通過

Passes for default location (London). Set your location on the main map for personalized predictions.

高度履歴

Loading altitude history...

軌道要素

1 55411U 23014W 26178.19557641 .00000923 00000-0 85101-4 0 9991
2 55411 69.9998 148.5428 0003253 266.6752 93.4035 14.98339901188454
Epoch: Jun 27, 2026 • Age: 7 hours

現在のステータス

高度 582.6 km
速度 7.57 km/s
衛星直下点 55.06°N, 92.88°E
打ち上げ日 Jan 31, 2023
運用期間 3.4 years
タイプ internet

技術仕様

分類 Payload
質量 305.00 kg
乾燥質量 290.00 kg
総質量 305.00 kg
長さ 0.20 m
直径 2.80 m
スパン 9.00 m
形状 Box + pan
製造者 SPXS
バスタイプ Starlink
フェーズステータス In Orbit
所有者/国 SPXS/US

Most Searched